This is the latest recevied weather packets stored in our database for station/object WA6GRA. If no packets are shown the sender has not sent any weather packets the latest 10 day(s).
| Time | Temp. | Humidity | Pressure | Rain* | Wind** | Luminosity | Snow |
|---|---|---|---|---|---|---|---|
| 1777465947 | 10° C | 91% | 1017.3 hPa | 0 mm | - | 0 W/m² | - |
| 1777465346 | 10.56° C | 89% | 1017.1 hPa | 0 mm | - | 0 W/m² | - |
| 1777464745 | 10.56° C | 89% | 1017.5 hPa | 0 mm | - | 0 W/m² | - |
| 1777464143 | 10.56° C | 88% | 1017.2 hPa | 0 mm | - | 0 W/m² | - |
| 1777463538 | 10.56° C | 88% | 1017.3 hPa | 0 mm | - | 0 W/m² | - |
| 1777462935 | 10.56° C | 88% | 1017.3 hPa | 0 mm | - | 0 W/m² | - |
| 1777462333 | 10.56° C | 89% | 1017.2 hPa | 0 mm | - | 0 W/m² | - |
| 1777461732 | 10.56° C | 88% | 1017.3 hPa | 0 mm | - | 0 W/m² | - |
| 1777461130 | 11.11° C | 87% | 1017.1 hPa | 0 mm | - | 0 W/m² | - |
| 1777460527 | 11.11° C | 85% | 1017.2 hPa | 0 mm | - | 0 W/m² | - |
| 1777459926 | 11.67° C | 84% | 1017.2 hPa | 0 mm | - | 0 W/m² | - |
| 1777459325 | 11.67° C | 84% | 1017.2 hPa | 0 mm | - | 0 W/m² | - |
| 1777458720 | 11.67° C | 84% | 1017.4 hPa | 0 mm | - | 0 W/m² | - |
| 1777458119 | 11.67° C | 84% | 1017.1 hPa | 0 mm | - | 0 W/m² | - |
| 1777457515 | 11.67° C | 86% | 1017.2 hPa | 0 mm | - | 0 W/m² | - |
| 1777456912 | 11.67° C | 87% | 1017.3 hPa | 0 mm | - | 0 W/m² | - |
| 1777456309 | 11.11° C | 87% | 1017.4 hPa | 0 mm | - | 0 W/m² | - |
| 1777455707 | 11.67° C | 87% | 1017.5 hPa | 0 mm | - | 0 W/m² | - |
| 1777455107 | 11.67° C | 86% | 1017.7 hPa | 0 mm | - | 0 W/m² | - |
| 1777454505 | 11.67° C | 86% | 1017.6 hPa | 0 mm | - | 0 W/m² | - |
| 1777453905 | 12.22° C | 86% | 1017.5 hPa | 0 mm | - | 0 W/m² | - |
| 1777453304 | 12.22° C | 84% | 1017.5 hPa | 0 mm | - | 0 W/m² | - |
| 1777452699 | 12.78° C | 83% | 1017.7 hPa | 0 mm | - | 0 W/m² | - |
| 1777452097 | 12.78° C | 81% | 1017.6 hPa | 0 mm | - | 0 W/m² | - |
| 1777451494 | 13.33° C | 81% | 1017.7 hPa | 0 mm | - | 0 W/m² | - |
* Rain latest hour (hover to see other rain measurements)
** Current wind speed in m/s (hover to see current wind gust speed)